カタログに戻る

DMSP 5D-2 F13 DEB

運用中PO
NORAD 40480·DEBRIS·🇺🇸 United States

打ち上げ Mar 24, 1995 から Vandenberg Space Force Base

Loading…

次のパス (今後24時間)

TLE

経年Source: Space-Track

元期: Sep 10, 2026, 09:43 UTC

1 40480U 95015BY  26253.40547300  .00014423  00000-0  28988-2 0  9998
2 40480  98.7174 216.3442 0038853  87.5680 272.9967 14.61247015593311

AllMySatでDMSP 5D-2 F13 DEBをリアルタイム追跡

Download on the App Store